User: anonymous
Location: Mauna Kea VIS
(19.7591°N, 155.4561°W)
Time: 15:02:46
(UTC-10:00)
Language:

Cosmos 1624 Rocket - Orbit

View from above orbital plane
View from above orbital plane
View from above satellite
View from above satellite

Ground track
Ground track

The orbit data is extracted from the following two-line orbital elements,

1 15483U 85006B   14238.13058883  .00000116  00000-0  49183-4 0  2994
2 15483 074.0446 077.9782 0019656 310.2855 188.3308 14.35847122549263
Epoch (UTC): 26 August 2014 03:08:02
Eccentricity: 0.0019656
inclination: 74.0446°
perigee height: 758 km
apogee height: 786 km
right ascension of ascending node: 77.9782°
argument of perigee: 310.2855°
revolutions per day: 14.35847122
mean anomaly at epoch: 188.3308°
orbit number at epoch: 54926

The dashed part of the orbit path shows where the satellite is in the earth's shadow,  

DLR